Find STARLINK-37451

NORAD ID: 799500922 Int'l Des: 2026-127AE Constellation: starlink operational

現在のビュー

3D地球を読み込み中...

STARLINK-37451について

説明を読み込み中...

次回通過

Passes for default location (London). Set your location on the main map for personalized predictions.

高度履歴

Loading altitude history...

軌道要素

1 99999C 2026127AE 26159.92479167 .01007700 00000-0 948560-4 0 1593
2 99999 53.1612 304.8279 0009063 292.3169 96.0018 16.10699044 13
Epoch: Jun 8, 2026 • Age: 4 hours